EW8004 Weather Reports


time (UTC)temp
C
wind
direction
speed
KPH
gust
KPH
rain 1hr
cm
rain 24hr
cm
rain mn
cm
humidity
%
barometer
mb
20260906101533 21 74 0.0 0.0 0.00 0.00 0.00 96 1011.2
20260906100033 21 74 0.0 0.0 0.00 0.00 0.00 95 1010.9
20260906094535 21 74 0.0 0.0 0.00 0.00 0.00 95 1010.9
20260906093035 21 74 0.0 0.0 0.00 0.00 0.00 95 1010.9
20260906091534 21 74 0.0 0.0 0.00 0.00 0.00 96 1010.9
20260906090030 21 74 0.0 0.0 0.00 0.00 0.00 95 1010.9
20260906084531 21 74 0.0 0.0 0.00 0.00 0.00 95 1010.8
20260906083027 21 74 0.0 0.0 0.00 0.00 0.00 95 1010.6
20260906081538 21 74 0.0 0.0 0.00 0.00 0.00 95 1010.6
20260906080025 21 74 0.0 0.0 0.00 0.00 0.00 95 1010.7
20260906074524 21 74 0.0 0.0 0.00 0.00 0.00 95 1010.5
20260906073024 21 74 0.0 0.0 0.00 0.00 0.00 95 1010.3
20260906071521 22 74 0.0 0.0 0.00 0.00 0.00 95 1010.3
20260906070019 22 74 0.0 0.0 0.00 0.00 0.00 95 1010.5
20260906064516 22 74 0.0 0.0 0.00 0.00 0.00 95 1010.8
20260906063015 22 74 0.0 0.0 0.00 0.00 0.00 95 1011.2
20260906061513 22 74 0.0 0.0 0.00 0.00 0.00 95 1011.2
20260906060021 22 74 0.0 0.0 0.00 0.00 0.00 95 1011.1
20260906054511 22 74 0.0 0.0 0.00 0.00 0.00 94 1011.0
20260906053020 22 74 0.0 0.0 0.00 0.00 0.00 95 1011.0
20260906051511 22 74 0.0 0.0 0.00 0.00 0.00 94 1011.1
20260906050025 22 74 0.0 0.0 0.00 0.00 0.00 94 1011.2
20260906044507 22 74 0.0 0.0 0.00 0.00 0.00 94 1011.4
20260906043006 22 74 0.0 0.0 0.00 0.00 0.00 94 1011.3
20260906041505 22 74 0.0 0.0 0.00 0.00 0.00 94 1011.2
20260906040002 23 74 0.0 0.0 0.00 0.00 0.00 94 1011.5
20260906034502 23 74 0.0 0.0 0.00 0.00 0.00 94 1011.5
20260906033005 23 74 0.0 0.0 0.00 0.00 0.00 94 1011.5
20260906031605 23 74 0.0 0.0 0.00 0.00 0.00 94 1011.7
20260906030100 23 74 0.0 0.0 0.00 0.00 0.00 93 1011.6
20260906024601 23 74 0.0 0.0 0.00 0.00 0.00 93 1011.4
20260906023100 24 74 0.0 0.0 0.00 0.00 0.00 93 1011.4
20260906021606 24 74 0.0 0.0 0.00 0.00 0.00 93 1011.1
20260906020103 24 74 0.0 0.0 0.00 0.00 0.00 92 1011.1
20260906014558 25 74 0.0 0.0 0.00 0.00 0.00 92 1010.8
20260906013057 25 74 0.0 0.0 0.00 0.00 0.00 92 1010.6
20260906011557 25 74 0.0 0.0 0.00 0.00 0.00 91 1010.6
20260906010056 26 74 0.0 0.0 0.00 0.00 0.00 90 1010.4
20260906004557 26 74 0.0 0.0 0.00 0.00 0.00 90 1010.4
20260906003056 26 74 0.0 0.0 0.00 0.00 0.00 90 1010.3
20260906001555 27 74 0.0 0.0 0.00 0.00 0.00 90 1010.1
20260906000055 27 74 0.0 0.0 0.00 0.00 0.00 89 1010.1
20260905234556 27 74 0.0 0.0 0.00 0.00 0.00 88 1010.2
20260905233054 28 74 0.0 0.0 0.00 0.00 0.00 88 1010.2
20260905231553 28 74 0.0 0.0 0.00 0.00 0.00 87 1010.1
20260905230055 28 74 0.0 0.0 0.00 0.00 0.00 85 1010.0
20260905224603 28 74 0.0 0.0 0.00 0.00 0.00 84 1010.0
20260905223052 28 74 0.0 0.0 0.00 0.00 0.00 84 1010.0
20260905221558 29 74 0.0 0.0 0.00 0.00 0.00 82 1009.9
20260905220103 29 74 0.0 0.0 0.00 0.00 0.00 81 1010.0
20260905214549 29 74 0.0 0.0 0.00 0.00 0.00 80 1009.9
20260905213051 29 74 0.0 0.0 0.00 0.00 0.00 81 1010.1
20260905211603 29 74 0.0 0.0 0.00 0.00 0.00 81 1010.1
20260905210054 30 74 0.0 0.0 0.00 0.00 0.00 80 1010.2
20260905204554 30 74 0.0 0.0 0.00 0.00 0.00 82 1010.2
20260905203110 30 74 0.0 0.0 0.00 0.00 0.00 81 1010.2
20260905201546 30 74 0.0 0.0 0.00 0.00 0.00 80 1010.4
20260905200053 30 64 0.0 0.0 0.00 0.00 0.00 80 1010.6
20260905194540 30 64 0.0 0.0 0.00 0.00 0.00 80 1010.9
20260905193037 30 64 0.0 0.0 0.00 0.00 0.00 78 1011.2
20260905191535 30 64 0.0 0.0 0.00 0.00 0.00 78 1011.3
20260905190034 30 64 0.0 0.0 0.00 0.00 0.00 77 1011.5
20260905184533 30 80 0.0 0.0 0.00 0.00 0.00 81 1011.7
20260905183026 29 327 0.0 0.0 0.00 0.00 0.00 82 1012.0
20260905181527 29 317 0.0 0.0 0.00 0.00 0.00 82 1012.3
20260905180021 28 317 0.0 0.0 0.00 0.00 0.00 84 1012.7
20260905174526 28 51 0.0 0.0 0.00 0.00 0.00 84 1012.8
20260905173025 28 69 0.0 0.0 0.00 0.00 0.00 87 1013.1
20260905171525 27 84 0.0 0.0 0.00 0.00 0.00 89 1013.1
20260905170016 27 84 0.0 0.0 0.00 0.00 0.00 89 1013.3
20260905164516 27 84 0.0 0.0 0.00 0.00 0.00 90 1013.4
20260905163016 27 84 0.0 0.0 0.00 0.00 0.00 89 1013.4
20260905161514 27 72 0.0 0.0 0.00 0.00 0.00 89 1013.5
20260905160014 28 34 0.0 0.0 0.00 0.00 0.00 87 1013.3
20260905154512 28 34 0.0 0.0 0.00 0.00 0.00 88 1013.2
20260905153018 27 34 0.0 0.0 0.00 0.00 0.00 89 1013.0
20260905151506 27 34 0.0 0.0 0.00 0.00 0.00 93 1013.0
20260905150001 26 34 0.0 0.0 0.00 0.00 0.00 93 1013.2
20260905144601 25 34 0.0 0.0 0.00 0.00 0.00 94 1013.3
20260905143056 25 34 0.0 0.0 0.00 0.00 0.00 95 1013.5
20260905141551 24 34 0.0 0.0 0.00 0.00 0.00 95 1013.6
20260905140048 23 34 0.0 0.0 0.00 0.00 0.00 95 1013.5
20260905134548 23 34 0.0 0.0 0.00 0.00 0.00 96 1013.6
20260905133046 22 34 0.0 0.0 0.00 0.00 0.00 96 1013.7
20260905131546 22 34 0.0 0.0 0.00 0.00 0.00 96 1013.9
20260905130045 22 34 0.0 0.0 0.00 0.00 0.00 96 1014.1
20260905124545 22 34 0.0 0.0 0.00 0.00 0.00 96 1014.1
20260905123044 21 34 0.0 0.0 0.00 0.00 0.00 96 1014.0
20260905121541 21 34 0.0 0.0 0.00 0.00 0.00 96 1013.9
20260905120038 21 34 0.0 0.0 0.00 0.00 0.00 96 1013.9
20260905114535 21 34 0.0 0.0 0.00 0.00 0.00 96 1013.6
20260905113035 21 34 0.0 0.0 0.00 0.00 0.00 96 1013.3
20260905111533 21 34 0.0 0.0 0.00 0.00 0.00 95 1013.1
20260905110033 21 34 0.0 0.0 0.00 0.00 0.00 95 1013.1
20260905104531 21 34 0.0 0.0 0.00 0.00 0.00 95 1012.9
20260905103037 21 34 0.0 0.0 0.00 0.00 0.00 95 1012.7